Regional Weather Roundup
Issued by NWS

Home | Current Version | Previous Version | Text Only | Print | Product List | Glossary On
Versions: 1 2 3 4 5 6 7 8 9 10 11 12 13 14 15 16 17 18 19 20 21 22 23 24 25 26 27 28 29 30 31 32 33 34 35 36 37 38 39 40 41 42 43 44 45 46 47 48 49 50
000
ASUS43 KLSX 310157
RWRMO

WEATHER SUMMARY FOR MISSOURI
NATIONAL WEATHER SERVICE SPRINGFIELD MO
900 PM CDT MON MAY 30 2016

NOTE: "FAIR" INDICATES FEW OR NO CLOUDS BELOW 12,000 FEET WITH NO
       SIGNIFICANT WEATHER AND/OR OBSTRUCTIONS TO VISIBILITY.
       CURRENT SKY AND/OR WEATHER CONDITIONS ARE NOT AVAILABLE FOR
       CHILLICOTHE AND FARMINGTON.

MOZ001>031-035>038-043-044-053-054-310300-
...NORTHERN AND WESTERN MISSOURI...

CITY           SKY/WX    TMP DP  RH WIND       PRES   REMARKS
KANSAS CTY INT PTCLDY    68  58  70 S9        29.96R
LEE`S SUMMIT   PTCLDY    69  59  70 S8        29.97S
ST JOSEPH      LGT RAIN  72  62  71 S9        29.94F
CHILLICOTHE      N/A     69  64  84 CALM      29.98R

$$
MOZ066>068-077>081-088>096-101>105-310300-
...SOUTHWEST MISSOURI...

CITY           SKY/WX    TMP DP  RH WIND       PRES   REMARKS
SPRINGFIELD    CLOUDY    67  63  87 E10       30.00F
JOPLIN         CLOUDY    67  65  93 E8        29.97F
BRANSON        CLOUDY    66  66 100 SE3       30.02S

$$
MOZ032>034-039>042-045>050-055>058-069>072-310300-
...CENTRAL MISSOURI...

CITY           SKY/WX    TMP DP  RH WIND       PRES   REMARKS
COLUMBIA       NOT AVBL
JEFFERSON CITY CLOUDY    69  61  75 CALM      29.99F
ROLLA          CLOUDY    65  62  90 SE3       30.00F
SEDALIA        CLOUDY    68  61  78 SE9       29.97F
WARRENSBURG    CLOUDY    68  59  73 S9        29.96F

$$
MOZ051-052-059>065-310300-
...EAST CENTRAL MISSOURI...

CITY           SKY/WX    TMP DP  RH WIND       PRES   REMARKS
ST LOUIS INTL  CLOUDY    77  59  53 NE5       29.99S

$$
MOZ072>076-082>087-097>100-106>115-310300-
...SOUTH CENTRAL AND SOUTHEAST MISSOURI...

CITY           SKY/WX    TMP DP  RH WIND       PRES   REMARKS
CAPE GIRARDEAU PTCLDY    72  67  84 CALM      29.97S
POPLAR BLUFF   CLOUDY    76  71  85 CALM      29.96F
WEST PLAINS    CLOUDY    65  61  87 CALM      30.03F

$$


USA.gov is the U.S. government's official web portal to all federal, state and local government web resources and services.